Back to catalog

ONEWEB-0529

AliveCommunicationsPO
NORAD 54145·PAYLOAD·🇬🇧 United Kingdom

Launched Oct 22, 2022 from Satish Dhawan Space Centre

Loading…

Next Passes (next 24 hours)

TLE

FreshSource: CelesTrak SupGP

Epoch: Sep 14, 2026, 21:30 UTC

1 54145C 22138AJ  26257.89597639  .00001026  00000+0  25660-2 0  2579
2 54145  87.9107 287.1020 0001975  87.3548 305.7411 13.19724052    16

Track ONEWEB-0529 in real time with AllMySat

Download on the App Store